Home > Weather > Halmstad > Past weeks

Flag for Sweden Past Weather in Halmstad, Sweden — Yesterday and Last 2 Weeks

Now
59 °F

Passing clouds.


Feels Like: 57 °F
Forecast: 59 / 66 °F
Wind: 10 mph from West

Location: Halmstad Swedish Air Force Base

Current Time: Jul 31, 2016 at 5:47:28 AM

Latest Report: Jul 31, 2016 at 5:20 AM


Visibility: N/A

Pressure: 29.83 "Hg

Humidity: 77%

Dew Point: 52 °F

Location of HalmstadLocation

Past Weather in Halmstad — Graph

°F

Halmstad Temperature Yesterday

Maximum temperature yesterday: 68 °F (at 10:20 AM)
Minimum temperature yesterday: 59 °F (at 10:50 PM)
Average temperature yesterday: 65 °F

High & Low Weather Summary for the Past Weeks

 TemperatureHumidityPressure
High81 °F (Jul 23, 2:50 PM)100% (Jul 16, 2:20 PM)30.12 "Hg (Jul 16, 2:20 PM)
Low52 °F (Jul 29, 1:50 AM)42% (Jul 21, 3:20 PM)29.71 "Hg (Jul 30, 5:20 AM)
Average66 °F76%30.00 "Hg
* Reported Jul 16 4:20 AM — Jul 31 4:20 AM, Halmstad, Weather by CustomWeather, © 2016

Note: Actual official high and low records may vary slightly from our data, if they occured in-between our weather recording intervals... More about our weather records

Advertising

Halmstad Weather History for the Previous 24 Hours

Scroll right to see more
 ConditionsComfort  
Time TempWeatherWind HumidityBarometerVisibility
4:20 AM
Sun, Jul 31
59 °FPassing clouds.8 mph77%29.83 "HgN/A
3:50 AM59 °FPassing clouds.8 mph77%29.83 "HgN/A
3:20 AM59 °FPassing clouds.8 mph77%29.83 "HgN/A
2:50 AM59 °FPassing clouds.9 mph72%29.83 "HgN/A
2:20 AM59 °FPassing clouds.10 mph77%29.83 "HgN/A
1:50 AM59 °FPassing clouds.10 mph77%29.83 "HgN/A
1:20 AM61 °FPassing clouds.12 mph68%29.83 "HgN/A
12:50 AM61 °FPassing clouds.12 mph72%29.83 "HgN/A
12:20 AM61 °FPartly cloudy.7 mph72%29.83 "HgN/A
11:50 PM
Sat, Jul 30
59 °FPassing clouds.8 mph77%29.83 "HgN/A
11:20 PM59 °FPassing clouds.8 mph77%29.83 "HgN/A
10:50 PM59 °FPassing clouds.7 mph72%29.80 "HgN/A
10:20 PM61 °FPassing clouds.10 mph68%29.80 "HgN/A
9:50 PM61 °FScattered clouds.7 mph72%29.80 "HgN/A
9:20 PM63 °FPartly sunny.8 mph68%29.80 "HgN/A
8:50 PM64 °FPartly sunny.12 mph64%29.80 "HgN/A
8:20 PM64 °FPartly sunny.8 mph64%29.80 "HgN/A
7:50 PM64 °FScattered clouds.12 mph64%29.80 "HgN/A
7:20 PM66 °FPartly sunny.14 mph60%29.77 "HgN/A
6:50 PM64 °FMild.14 mph68%29.77 "HgN/A
6:20 PM68 °FPartly sunny.14 mph64%29.77 "HgN/A
5:50 PM66 °FPartly sunny.12 mph68%29.77 "HgN/A
5:20 PM66 °FBroken clouds.14 mph64%29.77 "HgN/A
4:50 PM66 °FPartly sunny.10 mph64%29.77 "HgN/A
4:20 PM66 °FBroken clouds.13 mph64%29.77 "HgN/A
3:50 PM68 °FPassing clouds.13 mph64%29.77 "HgN/A
3:20 PM68 °FScattered clouds.12 mph64%29.74 "HgN/A
2:50 PM68 °FPassing clouds.12 mph69%29.74 "HgN/A
2:20 PM68 °FScattered clouds.12 mph69%29.74 "HgN/A
1:50 PM66 °FPassing clouds.9 mph73%29.74 "HgN/A
1:20 PM68 °FPassing clouds.12 mph69%29.74 "HgN/A
12:50 PM66 °FPartly sunny.9 mph73%29.74 "HgN/A
12:20 PM66 °FBroken clouds.9 mph78%29.74 "HgN/A
11:50 AM68 °FBroken clouds.8 mph73%29.74 "HgN/A
11:20 AM68 °FBroken clouds.9 mph73%29.74 "HgN/A
10:50 AM66 °FBroken clouds.9 mph78%29.74 "HgN/A
10:20 AM68 °FScattered clouds.9 mph78%29.74 "HgN/A
9:50 AM66 °FScattered clouds.10 mph78%29.74 "HgN/A
9:20 AM66 °FScattered clouds.10 mph78%29.74 "HgN/A
8:50 AM66 °FScattered clouds.8 mph83%29.74 "HgN/A
8:20 AM64 °FScattered clouds.8 mph88%29.74 "HgN/A
7:50 AM64 °FPassing clouds.6 mph88%29.74 "HgN/A
7:20 AM64 °FPassing clouds.8 mph88%29.71 "HgN/A
6:50 AM64 °FScattered clouds.3 mph88%29.71 "HgN/A
6:20 AM63 °FPassing clouds.3 mph88%29.71 "HgN/A
5:50 AM61 °FPassing clouds.2 mph94%29.74 "HgN/A
5:20 AM61 °FPassing clouds.2 mph94%29.71 "HgN/A
Weather by CustomWeather, © 2016

See weather overviewHow to use our weather pages